Zurück zum Katalog

SL-8 R/B

AktivPO
NORAD 13111·ROCKET BODY·🇷🇺 Russia

Gestartet Mar 24, 1982 von Plesetsk Cosmodrome

Loading…

Nächste Überflüge (nächste 24 Stunden)

TLE

AktuellSource: Space-Track

Epoche: Sep 14, 2026, 14:31 UTC

1 13111U 82024B   26257.60546009  .00000090  00000-0  76751-4 0  9994
2 13111  82.9268 318.8396 0040327 359.0895 167.0772 13.76252139232575

Verfolge SL-8 R/B in Echtzeit mit AllMySat

Download on the App Store